Weather History for Biloxi, MS

Change the Weather History Date:

Wednesday, April 4, 2012

  Actual Average Record
Temperature  
Mean Temperature 70 °F -  
Max Temperature 75 °F 72 °F 85 °F (1963)
Min Temperature 64 °F 56 °F 30 °F (1975)
Cooling Degree Days 6    
Growing Degree Days 20 (Base 50)    
Moisture  
Dew Point 66 °F    
Average Humidity 94    
Maximum Humidity 100    
Minimum Humidity 70    
Precipitation  
Precipitation 2.58 in - - ()
Sea Level Pressure  
Sea Level Pressure 29.93 in    
Wind  
Wind Speed 9 mph (NNE)    
Max Wind Speed 25 mph    
Max Gust Speed 33 mph    
Visibility 6 miles    
Events Rain , Thunderstorm    
Averages and records for this station are not official NWS values.
T = Trace of Precipitation, MM = Missing Value Source: NWS Daily Summary

Daily Weather History Graph

Daily Weather History Graph

Search for Another Location

Airport:

Trip Planner

Search our weather history database for the weather conditions in past years. The results will help you decide how hot, cold, wet, or windy it might be!

Date:

Astronomy

Apr. 04, 2012 Rise Set
Actual Time 6:40 AM CDT 7:16 PM CDT
Civil Twilight 6:16 AM CDT 7:41 PM CDT
Nautical Twilight 5:47 AM CDT 8:09 PM CDT
Astronomical Twilight 5:18 AM CDT 8:38 PM CDT
Moon 5:16 PM CDT (4/4) 4:53 AM CDT (4/4)
Length of Visible Light 13h 24m
Length of Day
12h 36m
Waxing Gibbous, 94% of the Moon is Illuminated
Apr 4
Waxing Gibbous
Apr 6
Full
Apr 13
Last Quarter
Apr 21
New
Apr 29
First Quarter

Hourly Weather History & Observations

Time (CDT) Temp. Dew Point Humidity Pressure Visibility Wind Dir Wind Speed Gust Speed Precip Events Conditions
12:05 AM 77.0 °F 73.4 °F 89% 29.94 in 10.0 mi ESE 3.5 mph - N/A   Overcast
12:07 AM 77.0 °F 73.4 °F 89% 29.94 in 10.0 mi ESE 3.5 mph - N/A   Overcast
12:30 AM 73.4 °F 73.4 °F 100% 29.92 in 10.0 mi ENE 9.2 mph - N/A Thunderstorm Mostly Cloudy
12:35 AM 73.4 °F 73.4 °F 100% 29.92 in 9.0 mi ENE 9.2 mph - N/A Thunderstorm Mostly Cloudy
12:37 AM 73.4 °F 73.4 °F 100% 29.92 in 6.0 mi ENE 10.4 mph - N/A Rain , Thunderstorm Rain
12:40 AM 73.4 °F 73.4 °F 100% 29.91 in 4.0 mi ENE 11.5 mph - N/A Rain , Thunderstorm Heavy Thunderstorms and Rain
12:44 AM 73.4 °F 73.4 °F 100% 29.90 in 3.0 mi ENE 10.4 mph - N/A Rain , Thunderstorm Light Thunderstorms and Rain
12:49 AM 73.4 °F 73.4 °F 100% 29.91 in 6.0 mi NE 15.0 mph - N/A Rain , Thunderstorm Light Thunderstorms and Rain
12:55 AM 72.0 °F 71.6 °F 99% 29.92 in 9.0 mi NNE 23.0 mph 26.5 mph 0.13 in Rain , Thunderstorm Light Thunderstorms and Rain
1:10 AM 69.8 °F 68.0 °F 94% 29.93 in 10.0 mi East 12.7 mph - N/A Rain , Thunderstorm Light Thunderstorms and Rain
1:19 AM 68.0 °F 66.2 °F 94% 29.93 in 9.0 mi ENE 10.4 mph - N/A Rain , Thunderstorm Light Thunderstorms and Rain
1:24 AM 68.0 °F 66.2 °F 94% 29.95 in 5.0 mi Variable 3.5 mph - N/A Rain , Thunderstorm Thunderstorms and Rain
1:26 AM 68.0 °F 66.2 °F 94% 29.96 in 4.0 mi Variable 4.6 mph - N/A Rain , Thunderstorm Thunderstorms and Rain
1:27 AM 68.0 °F 66.2 °F 94% 29.96 in 4.0 mi Variable 4.6 mph - N/A Rain , Thunderstorm Heavy Thunderstorms and Rain
1:28 AM 68.0 °F 66.2 °F 94% 29.96 in 3.0 mi Variable 5.8 mph - N/A Rain , Thunderstorm Heavy Thunderstorms and Rain
1:29 AM 68.0 °F 66.2 °F 94% 29.96 in 2.5 mi Variable 6.9 mph - N/A Rain , Thunderstorm Heavy Thunderstorms and Rain
1:30 AM 68.0 °F 66.2 °F 94% 29.96 in 2.5 mi Variable 6.9 mph - N/A Rain , Thunderstorm Heavy Thunderstorms and Rain
1:32 AM 66.2 °F 66.2 °F 100% 29.96 in 2.0 mi North 12.7 mph 25.3 mph N/A Rain , Thunderstorm Heavy Thunderstorms and Rain
1:33 AM 66.2 °F 66.2 °F 100% 29.96 in 2.0 mi NW 11.5 mph 25.3 mph N/A Rain , Thunderstorm Heavy Thunderstorms and Rain
1:34 AM 66.2 °F 66.2 °F 100% 29.95 in 2.0 mi WNW 9.2 mph 25.3 mph N/A Rain , Thunderstorm Heavy Thunderstorms and Rain
1:35 AM 66.2 °F 64.4 °F 94% 29.95 in 1.8 mi NW 8.1 mph 25.3 mph N/A Rain , Thunderstorm Heavy Thunderstorms and Rain
1:36 AM 66.2 °F 64.4 °F 94% 29.95 in 1.5 mi NW 8.1 mph 25.3 mph N/A Rain , Thunderstorm Heavy Thunderstorms and Rain
1:41 AM 68.0 °F 64.4 °F 88% 29.94 in 1.2 mi NNE 15.0 mph 33.4 mph N/A Rain , Thunderstorm Heavy Thunderstorms and Rain
1:45 AM 66.2 °F 62.6 °F 88% 29.94 in 1.0 mi NNE 19.6 mph 33.4 mph N/A Rain , Thunderstorm Heavy Thunderstorms and Rain
1:46 AM 66.2 °F 62.6 °F 88% 29.95 in 1.2 mi NNE 18.4 mph 33.4 mph N/A Rain , Thunderstorm Heavy Thunderstorms and Rain
1:53 AM 66.2 °F 62.6 °F 88% 29.97 in 1.5 mi North 13.8 mph 32.2 mph N/A Rain , Thunderstorm Heavy Thunderstorms and Rain
1:55 AM 65.7 °F 62.8 °F 90% 29.99 in 1.5 mi NNW 11.5 mph 32.2 mph 0.97 in Rain , Thunderstorm Heavy Thunderstorms and Rain
1:57 AM 66.2 °F 62.6 °F 88% 30.00 in 1.8 mi NW 6.9 mph 32.2 mph N/A Rain , Thunderstorm Heavy Thunderstorms and Rain
2:00 AM 66.2 °F 64.4 °F 94% 30.02 in 1.5 mi WNW 10.4 mph 21.9 mph N/A Rain , Thunderstorm Heavy Thunderstorms and Rain
2:03 AM 66.2 °F 64.4 °F 94% 30.01 in 1.2 mi NNW 11.5 mph 21.9 mph N/A Rain , Thunderstorm Heavy Thunderstorms and Rain
2:07 AM 64.4 °F 64.4 °F 100% 30.00 in 1.0 mi NW 6.9 mph 17.3 mph N/A Rain , Thunderstorm Heavy Thunderstorms and Rain
2:12 AM 64.4 °F 64.4 °F 100% 29.99 in 1.0 mi NNW 12.7 mph 19.6 mph N/A Rain , Thunderstorm Heavy Thunderstorms and Rain
2:14 AM 64.4 °F 64.4 °F 100% 30.00 in 1.0 mi NNW 11.5 mph 19.6 mph N/A Rain , Thunderstorm Heavy Thunderstorms and Rain
2:18 AM 64.4 °F 64.4 °F 100% 30.00 in 1.2 mi NNW 10.4 mph 19.6 mph N/A Rain , Thunderstorm Heavy Thunderstorms and Rain
2:21 AM 64.4 °F 64.4 °F 100% 30.00 in 1.2 mi North 11.5 mph 20.7 mph N/A Rain , Thunderstorm Heavy Thunderstorms and Rain
2:22 AM 64.4 °F 64.4 °F 100% 29.99 in 1.5 mi North 9.2 mph 20.7 mph N/A Rain , Thunderstorm Heavy Thunderstorms and Rain
2:23 AM 64.4 °F 64.4 °F 100% 29.99 in 1.8 mi North 10.4 mph 20.7 mph N/A Rain , Thunderstorm Heavy Thunderstorms and Rain
2:24 AM 64.4 °F 64.4 °F 100% 29.99 in 1.8 mi North 11.5 mph 20.7 mph N/A Rain , Thunderstorm Heavy Thunderstorms and Rain
2:25 AM 64.4 °F 64.4 °F 100% 29.98 in 2.0 mi North 11.5 mph 20.7 mph N/A Rain , Thunderstorm Heavy Thunderstorms and Rain
2:26 AM 64.4 °F 64.4 °F 100% 29.98 in 2.0 mi North 12.7 mph 20.7 mph N/A Rain , Thunderstorm Heavy Thunderstorms and Rain
2:27 AM 64.4 °F 64.4 °F 100% 29.97 in 2.5 mi North 12.7 mph 20.7 mph N/A Rain , Thunderstorm Heavy Thunderstorms and Rain
2:28 AM 64.4 °F 64.4 °F 100% 29.96 in 3.0 mi NNE 11.5 mph 20.7 mph N/A Rain , Thunderstorm Heavy Thunderstorms and Rain
2:37 AM 64.4 °F 64.4 °F 100% 29.94 in 5.0 mi NNE 17.3 mph 25.3 mph N/A Rain , Thunderstorm Heavy Thunderstorms and Rain
2:45 AM 64.4 °F 64.4 °F 100% 29.91 in 8.0 mi NE 25.3 mph 28.8 mph N/A Rain , Thunderstorm Thunderstorms and Rain
2:55 AM 64.9 °F 64.8 °F 99% 29.92 in 10.0 mi NNE 13.8 mph - 0.81 in Rain , Thunderstorm Light Thunderstorms and Rain
3:06 AM 66.2 °F 64.4 °F 94% 29.92 in 10.0 mi North 10.4 mph 27.6 mph N/A Rain , Thunderstorm Light Rain
3:36 AM 64.4 °F 64.4 °F 100% 29.89 in 10.0 mi North 11.5 mph 24.2 mph N/A Rain , Thunderstorm Light Thunderstorms and Rain
3:55 AM 65.3 °F 64.0 °F 96% 29.92 in 10.0 mi North 6.9 mph 19.6 mph 0.03 in Rain , Thunderstorm Light Thunderstorms and Rain
5:09 AM 64.4 °F 62.6 °F 94% 29.93 in 4.0 mi Calm Calm - N/A Rain , Thunderstorm Thunderstorms and Rain
5:55 AM 64.8 °F 64.4 °F 99% 29.94 in 7.0 mi ENE 3.5 mph - 0.17 in Rain , Thunderstorm Light Rain
6:10 AM 64.4 °F 64.4 °F 100% 29.94 in 7.0 mi North 3.5 mph - N/A Rain , Thunderstorm Light Thunderstorms and Rain
6:34 AM 64.4 °F 64.4 °F 100% 29.93 in 5.0 mi ENE 4.6 mph - N/A Rain Rain
6:42 AM 64.4 °F 64.4 °F 100% 29.92 in 8.0 mi East 6.9 mph - N/A Rain Rain
6:55 AM 64.9 °F 64.8 °F 99% 29.91 in 8.0 mi East 6.9 mph - 0.19 in Rain , Thunderstorm Rain
7:29 AM 66.2 °F 62.6 °F 88% 29.92 in 10.0 mi ESE 6.9 mph - N/A Rain , Thunderstorm Light Thunderstorms and Rain
7:44 AM 66.2 °F 64.4 °F 94% 29.98 in 10.0 mi WNW 4.6 mph 20.7 mph N/A Rain Light Rain
7:55 AM 65.5 °F 64.4 °F 96% 30.00 in 10.0 mi Variable 4.6 mph - 0.07 in Rain Light Rain
8:55 AM 64.2 °F 63.9 °F 99% 30.04 in 10.0 mi North 6.9 mph - 0.04 in Rain , Thunderstorm Light Thunderstorms and Rain
9:38 AM 64.4 °F 64.4 °F 100% 30.06 in 6.0 mi Variable 4.6 mph - N/A Rain Rain
9:55 AM 64.0 °F 63.9 °F 99% 30.04 in 10.0 mi NE 8.1 mph - 0.11 in Rain Light Rain
10:16 AM 64.4 °F 64.4 °F 100% 30.00 in 10.0 mi East 12.7 mph - N/A Rain , Thunderstorm Light Thunderstorms and Rain
10:55 AM 64.4 °F 64.2 °F 99% 29.97 in 10.0 mi East 9.2 mph - 0.05 in Rain Light Rain
11:29 AM 64.4 °F 64.4 °F 100% 29.88 in 10.0 mi ESE 13.8 mph - N/A   Partly Cloudy
11:52 AM 66.2 °F 64.4 °F 94% 29.88 in 10.0 mi SSE 12.7 mph - N/A   Clear
11:55 AM 66.6 °F 64.6 °F 93% 29.89 in 10.0 mi SSE 11.5 mph - 0.01 in   Clear
11:56 AM 66.2 °F 64.4 °F 94% 29.90 in 10.0 mi SSE 10.4 mph - N/A   Clear
12:55 PM 70.3 °F 63.1 °F 78% 29.82 in 10.0 mi SE 10.4 mph - N/A   Mostly Cloudy
1:55 PM 71.6 °F 64.4 °F 78% 29.84 in 10.0 mi South 16.1 mph - N/A   Partly Cloudy
2:55 PM 73.4 °F 64.8 °F 74% 29.83 in 10.0 mi South 12.7 mph - N/A   Partly Cloudy
3:55 PM 75.0 °F 64.6 °F 70% 29.81 in 10.0 mi South 9.2 mph - N/A   Clear
4:55 PM 75.2 °F 64.9 °F 70% 29.80 in 10.0 mi South 8.1 mph - N/A   Clear
5:55 PM 74.5 °F 64.0 °F 70% 29.79 in 10.0 mi SSW 5.8 mph - N/A   Clear
6:55 PM 72.7 °F 64.9 °F 77% 29.80 in 10.0 mi Calm Calm - N/A   Clear
7:55 PM 70.0 °F 65.5 °F 86% 29.80 in 10.0 mi Calm Calm - N/A   Clear
8:55 PM 68.9 °F 66.7 °F 93% 29.80 in 10.0 mi Calm Calm - N/A   Clear
9:55 PM 68.5 °F 68.2 °F 99% 29.82 in 10.0 mi Calm Calm - N/A   Clear
10:55 PM 67.1 °F 66.7 °F 99% 29.82 in 10.0 mi Calm Calm - N/A   Clear
11:55 PM 67.1 °F 66.9 °F 99% 29.81 in 10.0 mi Calm Calm - N/A   Clear